[Iaude] MPEC T98: 2016 TM18 [a=1.36,e=0.05,i=35.3,H=21.0]

mpec at si.edu mpec at si.edu
Sun Oct 9 10:35:53 EDT 2016


M.P.E.C. 2016-T98                                Issued 2016 Oct.  9, 14:31 UT
 
     The Minor Planet Electronic Circulars contain information on unusual
         minor planets and routine data on comets.  They are published
    on behalf of Division F of the International Astronomical Union by the
          Minor Planet Center, Smithsonian Astrophysical Observatory,
                          Cambridge, MA 02138, U.S.A.

             Prepared using the Tamkin Foundation Computer Network

                              MPC at CFA.HARVARD.EDU
            URL http://www.minorplanetcenter.net/    ISSN 1523-6714


                                   2016 TM18
 
Observations:
     K16T18M* C2016 10 07.37485 01 15 54.30 +03 15 31.1          20.1 VoET098691
     K16T18M  C2016 10 07.39336 01 15 48.84 +03 16 26.9          20.2 VoET098691
     K16T18M  C2016 10 07.41187 01 15 43.35 +03 17 22.4          20.2 VoET098691
     K16T18M KC2016 10 07.95116701 13 07.85 +03 44 51.9          19.6 RtET098K93
     K16T18M KC2016 10 07.95489701 13 06.75 +03 45 03.2          19.6 RtET098K93
     K16T18M KC2016 10 07.95675801 13 06.19 +03 45 08.6          19.6 RtET098K93
     K16T18M KC2016 10 08.42739 01 10 48.35 +04 08 27.1          21.1 RoET098291
     K16T18M KC2016 10 08.42871 01 10 47.99 +04 08 31.1          20.3 RoET098291
     K16T18M KC2016 10 08.43003 01 10 47.61 +04 08 35.1          20.6 RoET098291
     K16T18M KC2016 10 08.97864 01 08 08.21 +04 36 13.0          19.8 VqET098I93
     K16T18M KC2016 10 08.98339 01 08 06.77 +04 36 27.5          19.5 VqET098I93
     K16T18M KC2016 10 08.99151 01 08 04.31 +04 36 52.4          19.6 VqET098I93
     K16T18M KC2016 10 09.25568 01 06 47.16 +04 50 17.9          19.5 RoET098291
     K16T18M KC2016 10 09.25724 01 06 46.68 +04 50 22.7          19.4 RoET098291
     K16T18M KC2016 10 09.25879 01 06 46.22 +04 50 27.4          19.4 RoET098291
     K16T18M  C2016 10 09.40711 01 06 01.47 +04 57 57.2          19.4 RoET098926
     K16T18M  C2016 10 09.41251 01 05 59.84 +04 58 13.5          19.5 RoET098926
     K16T18M  C2016 10 09.41870 01 05 57.98 +04 58 32.4          19.5 RoET098926
 
Observer details:
291 LPL/Spacewatch II.  Observers J. V. Scotti, R. S. McMillan.  1.8-m f/2.7
    reflector + CCD.
691 Steward Observatory, Kitt Peak.  Observer J. V. Scotti.  0.9-m f/3
    reflector + CCD.
926 Tenagra II Observatory.  Observers M. Schwartz, P. R. Holvorcem.  Measurer
    M. Schwartz.  0.81-m f/7 Ritchey-Chretien + CCD.
I93 St Pardon de Conques.  Observer F. Losse.  0.40-m f/3.7 reflector + CCD.
K93 Sutherland-LCOGT C.  Observers T. Lister, S. Greenstreet, E. Gomez.
    Measurer T. Lister.  1.0-m f/8 Ritchey-Chretien + CCD.
 
Orbital elements:
2016 TM18                                                Earth MOID = 0.3225 AU
Epoch 2016 July 31.0 TT = JDT 2457600.5                 MPC
M 205.08653              (2000.0)            P               Q
n   0.62424746     Peri.  115.18370     -0.62575318     -0.76093266
a   1.3559121      Node    17.27774     +0.32344883     -0.45320867
e   0.0491151      Incl.   35.27173     +0.70979843     -0.46430959
P   1.58           H   21.0           G   0.15           U   8
Residuals in seconds of arc
161007 691  0.0   0.2+    161008 291  0.3-  0.4+    161009 291  0.2+  0.3+
161007 691  0.3+  0.4+    161008 291  0.2+  0.4+    161009 291  0.0   0.4+
161007 691  0.1+  0.3+    161008 291  0.4+  0.4+    161009 291  0.1+  0.4+
161007 K93  0.2+  0.2+    161008 I93  0.7+  0.0     161009 926  0.2+  0.1+
161007 K93  0.4+  0.2+    161008 I93  0.5+  0.1+    161009 926  0.1+  0.1+
161007 K93  0.4+  0.0     161008 I93  0.1+  0.4+    161009 926  0.1+  0.2+

Ephemeris:
2016 TM18                a,e,i = 1.36, 0.05, 35                  q = 1.2893
Date    TT    R. A. (2000) Decl.     Delta      r     Elong.  Phase     V
2016 09 09    02 47 55.4 -13 51 07   0.5483  1.4005   125.8    35.7    21.9
...
2016 09 24    02 11 50.5 -06 40 34   0.4379  1.3921   147.4    22.9    21.0
...
2016 10 02    01 40 42.5 -01 05 08   0.3997  1.3873   162.5    12.6    20.5
...
2016 10 08    01 12 53.9 +03 47 03   0.3853  1.3834   175.1     3.6    20.0
2016 10 09    01 08 02.0 +04 37 30   0.3843  1.3828   177.1     2.1    19.9
2016 10 10    01 03 07.9 +05 28 05   0.3836  1.3821   178.8     0.9    19.8
...
2016 10 16    00 33 37.4 +10 26 52   0.3881  1.3781   167.4     9.1    20.3
...
2016 10 24    23 57 11.3 +16 19 50   0.4148  1.3727   151.2    20.4    20.8
...
2016 11 08    23 09 18.9 +23 59 41   0.5107  1.3621   127.3    35.4    21.7

A. U. Tomatic                (C) Copyright 2016 MPC           M.P.E.C. 2016-T98




More information about the Iaude mailing list